Time,TemperatureF,DewpointF,PressureIn,WindDirection,WindDirectionDegrees,WindSpeedMPH,WindSpeedGustMPH,Humidity,HourlyPrecipIn,Conditions,Clouds,dailyrainin,SoftwareType,DateUTC
2013-06-20 00:02:00,64.2,53.0,30.11,ENE,67,0.0,0.0,67,0.00,,,0.00,WUHU21623XXSP,2013-06-20 05:02:00,
2013-06-20 00:07:00,64.2,53.0,30.11,ENE,67,0.0,0.0,67,0.00,,,0.00,WUHU21623XXSP,2013-06-20 05:07:00,
2013-06-20 00:12:00,64.2,53.0,30.11,ENE,67,0.0,0.0,67,0.00,,,0.00,WUHU21623XXSP,2013-06-20 05:12:00,
2013-06-20 00:17:00,64.4,53.5,30.11,ENE,67,0.0,0.0,67,0.00,,,0.00,WUHU21623XXSP,2013-06-20 05:17:00,
2013-06-20 00:22:00,64.4,53.2,30.11,ENE,67,0.0,0.0,67,0.00,,,0.00,WUHU21623XXSP,2013-06-20 05:22:00,
2013-06-20 00:27:00,64.4,53.2,30.11,ENE,67,0.0,0.0,67,0.00,,,0.00,WUHU21623XXSP,2013-06-20 05:27:00,
2013-06-20 00:32:00,64.4,53.2,30.11,ENE,67,0.0,0.0,67,0.00,,,0.00,WUHU21623XXSP,2013-06-20 05:32:00,
2013-06-20 00:37:00,64.2,53.4,30.11,ENE,67,0.0,0.0,67,0.00,,,0.00,WUHU21623XXSP,2013-06-20 05:37:00,
2013-06-20 00:42:00,64.2,53.5,30.11,ENE,67,0.0,0.0,68,0.00,,,0.00,WUHU21623XXSP,2013-06-20 05:42:00,
2013-06-20 00:47:00,64.2,53.9,30.11,ENE,67,0.0,0.0,69,0.00,,,0.00,WUHU21623XXSP,2013-06-20 05:47:00,
2013-06-20 00:52:00,64.2,53.5,30.11,ENE,67,0.0,0.0,68,0.00,,,0.00,WUHU21623XXSP,2013-06-20 05:52:00,
2013-06-20 00:57:00,64.6,53.8,30.11,ENE,67,0.0,0.0,68,0.00,,,0.00,WUHU21623XXSP,2013-06-20 05:57:00,
2013-06-20 01:02:00,64.6,54.2,30.11,ENE,67,0.0,0.0,69,0.00,,,0.00,WUHU21623XXSP,2013-06-20 06:02:00,
2013-06-20 01:07:00,64.8,54.0,30.11,ENE,67,0.0,0.0,68,0.00,,,0.00,WUHU21623XXSP,2013-06-20 06:07:00,
2013-06-20 01:12:00,64.8,53.5,30.11,ENE,67,0.0,0.0,67,0.00,,,0.00,WUHU21623XXSP,2013-06-20 06:12:00,
2013-06-20 01:17:00,64.9,53.5,30.12,ENE,67,0.0,0.0,67,0.00,,,0.00,WUHU21623XXSP,2013-06-20 06:17:00,
2013-06-20 01:22:00,64.9,53.7,30.12,ENE,67,0.0,0.0,67,0.00,,,0.00,WUHU21623XXSP,2013-06-20 06:22:00,
2013-06-20 01:27:00,64.9,53.7,30.11,ENE,67,0.0,0.0,67,0.00,,,0.00,WUHU21623XXSP,2013-06-20 06:27:00,
2013-06-20 01:32:00,64.9,53.9,30.11,ENE,67,0.0,0.0,67,0.00,,,0.00,WUHU21623XXSP,2013-06-20 06:32:00,
2013-06-20 01:37:00,65.1,53.9,30.12,ENE,67,0.0,0.0,67,0.00,,,0.00,WUHU21623XXSP,2013-06-20 06:37:00,
2013-06-20 01:42:00,65.1,53.9,30.12,ENE,67,0.0,0.0,67,0.00,,,0.00,WUHU21623XXSP,2013-06-20 06:42:00,
2013-06-20 01:47:00,65.1,53.9,30.12,ENE,67,0.0,0.0,67,0.00,,,0.00,WUHU21623XXSP,2013-06-20 06:47:00,
2013-06-20 01:53:00,65.3,54.0,30.12,ENE,67,0.0,0.0,67,0.00,,,0.00,WUHU21623XXSP,2013-06-20 06:53:00,
2013-06-20 01:58:00,65.5,54.2,30.12,ENE,67,0.0,0.0,67,0.00,,,0.00,WUHU21623XXSP,2013-06-20 06:58:00,
2013-06-20 02:03:00,65.5,54.2,30.12,ENE,67,0.0,0.0,67,0.00,,,0.00,WUHU21623XXSP,2013-06-20 07:03:00,
2013-06-20 02:08:00,65.3,54.0,30.12,ENE,67,0.0,0.0,67,0.00,,,0.00,WUHU21623XXSP,2013-06-20 07:08:00,
2013-06-20 02:13:00,65.3,54.0,30.12,ENE,67,0.0,0.0,67,0.00,,,0.00,WUHU21623XXSP,2013-06-20 07:13:00,
2013-06-20 02:18:00,65.3,54.0,30.12,ENE,67,0.0,0.0,67,0.00,,,0.00,WUHU21623XXSP,2013-06-20 07:18:00,
2013-06-20 02:23:00,65.1,54.3,30.12,ENE,67,0.0,0.0,68,0.00,,,0.00,WUHU21623XXSP,2013-06-20 07:23:00,
2013-06-20 02:28:00,65.1,53.9,30.11,ENE,67,0.0,0.0,68,0.00,,,0.00,WUHU21623XXSP,2013-06-20 07:28:00,
2013-06-20 02:33:00,65.1,54.3,30.12,ENE,67,0.0,0.0,68,0.00,,,0.00,WUHU21623XXSP,2013-06-20 07:33:00,
2013-06-20 02:38:00,64.9,54.1,30.11,ENE,67,0.0,0.0,68,0.00,,,0.00,WUHU21623XXSP,2013-06-20 07:38:00,
2013-06-20 02:43:00,64.9,54.1,30.11,ENE,67,0.0,0.0,68,0.00,,,0.00,WUHU21623XXSP,2013-06-20 07:43:00,
2013-06-20 02:48:00,64.8,54.4,30.11,ENE,67,0.0,0.0,69,0.00,,,0.00,WUHU21623XXSP,2013-06-20 07:48:00,
2013-06-20 02:53:00,64.8,54.8,30.11,ENE,67,0.0,0.0,70,0.00,,,0.00,WUHU21623XXSP,2013-06-20 07:53:00,
2013-06-20 02:58:00,64.6,54.7,30.12,ENE,67,0.0,0.0,70,0.00,,,0.00,WUHU21623XXSP,2013-06-20 07:58:00,
2013-06-20 03:03:00,64.6,55.0,30.11,ENE,67,0.0,0.0,71,0.00,,,0.00,WUHU21623XXSP,2013-06-20 08:03:00,
2013-06-20 03:08:00,64.2,54.7,30.12,ENE,67,0.0,0.0,72,0.00,,,0.00,WUHU21623XXSP,2013-06-20 08:08:00,
2013-06-20 03:13:00,64.0,55.0,30.12,ENE,67,0.0,0.0,72,0.00,,,0.00,WUHU21623XXSP,2013-06-20 08:13:00,
2013-06-20 03:18:00,63.9,54.7,30.11,ENE,67,0.0,0.0,72,0.00,,,0.00,WUHU21623XXSP,2013-06-20 08:18:00,
2013-06-20 03:23:00,63.5,54.7,30.12,ENE,67,0.0,0.0,73,0.00,,,0.00,WUHU21623XXSP,2013-06-20 08:23:00,
2013-06-20 03:28:00,63.3,54.5,30.12,ENE,67,0.0,0.0,73,0.00,,,0.00,WUHU21623XXSP,2013-06-20 08:28:00,
2013-06-20 03:33:00,63.1,55.0,30.12,ENE,67,0.0,0.0,75,0.00,,,0.00,WUHU21623XXSP,2013-06-20 08:33:00,
2013-06-20 03:38:00,63.1,55.0,30.12,ENE,67,0.0,0.0,75,0.00,,,0.00,WUHU21623XXSP,2013-06-20 08:38:00,
2013-06-20 03:43:00,63.1,55.0,30.12,ENE,67,0.0,0.0,75,0.00,,,0.00,WUHU21623XXSP,2013-06-20 08:43:00,
2013-06-20 03:48:00,62.8,54.7,30.12,ENE,67,0.0,0.0,75,0.00,,,0.00,WUHU21623XXSP,2013-06-20 08:48:00,
2013-06-20 03:53:00,62.6,54.5,30.11,ENE,67,0.0,0.0,75,0.00,,,0.00,WUHU21623XXSP,2013-06-20 08:53:00,
2013-06-20 03:59:00,62.6,54.5,30.12,ENE,67,0.0,0.0,75,0.00,,,0.00,WUHU21623XXSP,2013-06-20 08:59:00,
2013-06-20 04:04:00,62.6,54.9,30.12,ENE,67,0.0,0.0,76,0.00,,,0.00,WUHU21623XXSP,2013-06-20 09:04:00,
2013-06-20 04:09:00,62.4,54.7,30.12,ENE,67,0.0,0.0,76,0.00,,,0.00,WUHU21623XXSP,2013-06-20 09:09:00,
2013-06-20 04:14:00,62.4,55.1,30.12,ENE,67,0.0,0.0,77,0.00,,,0.00,WUHU21623XXSP,2013-06-20 09:14:00,
2013-06-20 04:19:00,62.4,55.1,30.12,ENE,67,0.0,0.0,77,0.00,,,0.00,WUHU21623XXSP,2013-06-20 09:19:00,
2013-06-20 04:24:00,62.4,54.7,30.12,ENE,67,0.0,0.0,76,0.00,,,0.00,WUHU21623XXSP,2013-06-20 09:24:00,
2013-06-20 04:29:00,62.4,54.7,30.12,ENE,67,0.0,0.0,76,0.00,,,0.00,WUHU21623XXSP,2013-06-20 09:29:00,
2013-06-20 04:34:00,62.4,55.1,30.12,ENE,67,0.0,0.0,77,0.00,,,0.00,WUHU21623XXSP,2013-06-20 09:34:00,
2013-06-20 04:39:00,62.4,55.1,30.12,ENE,67,0.0,0.0,76,0.00,,,0.00,WUHU21623XXSP,2013-06-20 09:39:00,
2013-06-20 04:44:00,62.4,54.7,30.12,ENE,67,0.0,0.0,76,0.00,,,0.00,WUHU21623XXSP,2013-06-20 09:44:00,
2013-06-20 04:49:00,62.4,54.7,30.12,ENE,67,0.0,0.0,76,0.00,,,0.00,WUHU21623XXSP,2013-06-20 09:49:00,
2013-06-20 04:54:00,62.6,55.2,30.13,ENE,67,0.0,0.0,77,0.00,,,0.00,WUHU21623XXSP,2013-06-20 09:54:00,
2013-06-20 04:59:00,62.4,55.1,30.12,ENE,67,0.0,0.0,77,0.00,,,0.00,WUHU21623XXSP,2013-06-20 09:59:00,
2013-06-20 05:04:00,62.8,55.4,30.12,ENE,67,0.0,0.0,77,0.00,,,0.00,WUHU21623XXSP,2013-06-20 10:04:00,
2013-06-20 05:09:00,62.8,55.4,30.12,ENE,67,0.0,0.0,77,0.00,,,0.00,WUHU21623XXSP,2013-06-20 10:09:00,
2013-06-20 05:14:00,63.0,55.6,30.13,ENE,67,0.0,0.0,77,0.00,,,0.00,WUHU21623XXSP,2013-06-20 10:14:00,
2013-06-20 05:19:00,63.1,55.8,30.13,ENE,67,0.0,0.0,77,0.00,,,0.00,WUHU21623XXSP,2013-06-20 10:19:00,
2013-06-20 05:24:00,63.3,56.1,30.12,ENE,67,0.0,0.0,78,0.00,,,0.00,WUHU21623XXSP,2013-06-20 10:24:00,
2013-06-20 05:29:00,63.7,56.7,30.12,ENE,67,0.0,0.0,78,0.00,,,0.00,WUHU21623XXSP,2013-06-20 10:29:00,
2013-06-20 05:34:00,64.2,56.8,30.12,ENE,67,0.0,0.0,77,0.00,,,0.00,WUHU21623XXSP,2013-06-20 10:34:00,
2013-06-20 05:39:00,64.6,56.8,30.12,ENE,67,0.0,0.0,77,0.00,,,0.00,WUHU21623XXSP,2013-06-20 10:39:00,
2013-06-20 05:44:00,64.6,56.8,30.13,ENE,67,0.0,0.0,76,0.00,,,0.00,WUHU21623XXSP,2013-06-20 10:44:00,
2013-06-20 05:49:00,64.9,57.0,30.13,ENE,67,0.0,0.0,76,0.00,,,0.00,WUHU21623XXSP,2013-06-20 10:49:00,
2013-06-20 05:54:00,64.9,57.2,30.13,ENE,67,0.0,0.0,76,0.00,,,0.00,WUHU21623XXSP,2013-06-20 10:54:00,
2013-06-20 05:59:00,65.3,57.5,30.13,ENE,67,0.0,0.0,76,0.00,,,0.00,WUHU21623XXSP,2013-06-20 10:59:00,
2013-06-20 06:04:00,65.8,58.0,30.13,ENE,67,0.0,0.0,76,0.00,,,0.00,WUHU21623XXSP,2013-06-20 11:04:00,
2013-06-20 06:09:00,66.0,57.7,30.13,ENE,67,0.0,0.0,75,0.00,,,0.00,WUHU21623XXSP,2013-06-20 11:09:00,
2013-06-20 06:14:00,66.4,57.8,30.13,ENE,67,0.0,0.0,74,0.00,,,0.00,WUHU21623XXSP,2013-06-20 11:14:00,
2013-06-20 06:19:00,66.7,58.2,30.13,ENE,67,0.0,0.0,74,0.00,,,0.00,WUHU21623XXSP,2013-06-20 11:19:00,
2013-06-20 06:24:00,66.7,58.2,30.13,ENE,67,0.0,0.0,73,0.00,,,0.00,WUHU21623XXSP,2013-06-20 11:24:00,
2013-06-20 06:29:00,66.9,57.6,30.14,ENE,67,0.0,0.0,72,0.00,,,0.00,WUHU21623XXSP,2013-06-20 11:29:00,
2013-06-20 06:35:00,67.1,57.8,30.14,ENE,67,0.0,0.0,72,0.00,,,0.00,WUHU21623XXSP,2013-06-20 11:35:00,
2013-06-20 06:40:00,67.3,58.0,30.14,ENE,67,0.0,0.0,72,0.00,,,0.00,WUHU21623XXSP,2013-06-20 11:40:00,
2013-06-20 06:45:00,67.6,58.3,30.14,ENE,67,0.0,0.0,72,0.00,,,0.00,WUHU21623XXSP,2013-06-20 11:45:00,
2013-06-20 06:50:00,67.8,58.5,30.14,ENE,67,0.0,0.0,72,0.00,,,0.00,WUHU21623XXSP,2013-06-20 11:50:00,
2013-06-20 06:55:00,68.4,59.0,30.14,ENE,67,0.0,0.0,72,0.00,,,0.00,WUHU21623XXSP,2013-06-20 11:55:00,
2013-06-20 07:00:00,68.7,58.9,30.14,ENE,67,0.0,0.0,71,0.00,,,0.00,WUHU21623XXSP,2013-06-20 12:00:00,
2013-06-20 07:05:00,69.3,59.3,30.14,ENE,67,0.0,0.0,70,0.00,,,0.00,WUHU21623XXSP,2013-06-20 12:05:00,
2013-06-20 07:10:00,69.8,59.4,30.14,ESE,112,0.0,0.0,69,0.00,,,0.00,WUHU21623XXSP,2013-06-20 12:10:00,
2013-06-20 07:15:00,70.2,59.5,30.14,SSE,157,0.0,0.0,69,0.00,,,0.00,WUHU21623XXSP,2013-06-20 12:15:00,
2013-06-20 07:20:00,70.5,59.6,30.14,SSE,157,2.0,2.0,69,0.00,,,0.00,WUHU21623XXSP,2013-06-20 12:20:00,
2013-06-20 07:25:00,70.5,59.4,30.14,SSE,157,4.7,4.7,68,0.00,,,0.00,WUHU21623XXSP,2013-06-20 12:25:00,
2013-06-20 07:30:00,70.7,59.4,30.14,SSE,157,0.0,4.7,68,0.00,,,0.00,WUHU21623XXSP,2013-06-20 12:30:00,
2013-06-20 07:35:00,70.5,59.4,30.15,SSE,157,0.0,0.0,68,0.00,,,0.00,WUHU21623XXSP,2013-06-20 12:35:00,
2013-06-20 07:40:00,70.5,59.4,30.15,SSE,157,0.0,5.1,68,0.00,,,0.00,WUHU21623XXSP,2013-06-20 12:40:00,
2013-06-20 07:45:00,70.9,60.2,30.15,SSE,157,0.0,5.1,69,0.00,,,0.00,WUHU21623XXSP,2013-06-20 12:45:00,
2013-06-20 07:50:00,71.4,60.3,30.15,SSE,157,0.0,0.0,68,0.00,,,0.00,WUHU21623XXSP,2013-06-20 12:50:00,
2013-06-20 07:55:00,72.5,60.9,30.15,SSE,157,0.0,0.0,67,0.00,,,0.00,WUHU21623XXSP,2013-06-20 12:55:00,
2013-06-20 08:00:00,72.9,60.6,30.16,SSE,157,0.0,0.0,66,0.00,,,0.00,WUHU21623XXSP,2013-06-20 13:00:00,
2013-06-20 08:05:00,73.2,60.3,30.16,SE,135,0.0,0.0,64,0.00,,,0.00,WUHU21623XXSP,2013-06-20 13:05:00,
2013-06-20 08:10:00,73.2,60.3,30.16,SE,135,0.0,0.0,64,0.00,,,0.00,WUHU21623XXSP,2013-06-20 13:10:00,
2013-06-20 08:15:00,73.2,59.8,30.16,SE,135,0.0,0.0,63,0.00,,,0.00,WUHU21623XXSP,2013-06-20 13:15:00,
2013-06-20 08:20:00,73.2,59.8,30.16,SE,135,0.0,0.0,63,0.00,,,0.00,WUHU21623XXSP,2013-06-20 13:20:00,
2013-06-20 08:25:00,73.0,59.6,30.16,SE,135,0.0,0.0,63,0.00,,,0.00,WUHU21623XXSP,2013-06-20 13:25:00,
2013-06-20 08:30:00,73.0,60.1,30.16,SE,135,0.0,0.0,64,0.00,,,0.00,WUHU21623XXSP,2013-06-20 13:30:00,
2013-06-20 08:35:00,73.6,60.3,30.16,SE,135,0.0,0.0,64,0.00,,,0.00,WUHU21623XXSP,2013-06-20 13:35:00,
2013-06-20 08:40:00,73.9,60.9,30.16,SSE,157,3.1,3.1,65,0.00,,,0.00,WUHU21623XXSP,2013-06-20 13:40:00,
2013-06-20 08:45:00,75.0,61.5,30.16,SSE,157,0.0,3.1,64,0.00,,,0.00,WUHU21623XXSP,2013-06-20 13:45:00,
2013-06-20 08:50:00,76.1,62.6,30.16,SSE,157,0.0,2.9,63,0.00,,,0.00,WUHU21623XXSP,2013-06-20 13:50:00,
2013-06-20 08:55:00,76.5,62.5,30.16,SSE,157,0.0,0.0,62,0.00,,,0.00,WUHU21623XXSP,2013-06-20 13:55:00,
2013-06-20 09:00:00,76.3,61.8,30.16,SE,135,2.5,2.5,62,0.00,,,0.00,WUHU21623XXSP,2013-06-20 14:00:00,
2013-06-20 09:05:00,75.9,62.0,30.16,SSE,157,0.0,2.5,62,0.00,,,0.00,WUHU21623XXSP,2013-06-20 14:05:00,
2013-06-20 09:11:00,75.7,62.2,30.16,SSE,157,0.0,0.0,63,0.00,,,0.00,WUHU21623XXSP,2013-06-20 14:11:00,
2013-06-20 09:16:00,76.3,63.2,30.16,South,180,0.0,0.0,64,0.00,,,0.00,WUHU21623XXSP,2013-06-20 14:16:00,
2013-06-20 09:21:00,77.2,63.1,30.16,SE,135,0.0,0.0,62,0.00,,,0.00,WUHU21623XXSP,2013-06-20 14:21:00,
2013-06-20 09:26:00,77.5,63.3,30.16,SSE,157,0.0,0.0,62,0.00,,,0.00,WUHU21623XXSP,2013-06-20 14:26:00,
2013-06-20 09:31:00,78.1,64.0,30.15,South,180,0.0,0.0,62,0.00,,,0.00,WUHU21623XXSP,2013-06-20 14:31:00,
2013-06-20 09:36:00,79.0,65.0,30.15,SSE,157,0.0,1.6,63,0.00,,,0.00,WUHU21623XXSP,2013-06-20 14:36:00,
2013-06-20 09:41:00,79.5,65.4,30.15,SSE,157,3.8,3.8,62,0.00,,,0.00,WUHU21623XXSP,2013-06-20 14:41:00,
2013-06-20 09:46:00,79.9,65.7,30.16,South,180,3.6,3.8,62,0.00,,,0.00,WUHU21623XXSP,2013-06-20 14:46:00,
2013-06-20 09:51:00,80.4,65.3,30.15,South,180,0.0,7.4,60,0.00,,,0.00,WUHU21623XXSP,2013-06-20 14:51:00,
2013-06-20 09:56:00,81.0,65.9,30.15,SSE,157,2.0,7.4,61,0.00,,,0.00,WUHU21623XXSP,2013-06-20 14:56:00,
2013-06-20 10:01:00,81.3,66.1,30.16,SSE,157,6.7,6.7,60,0.00,,,0.00,WUHU21623XXSP,2013-06-20 15:01:00,
2013-06-20 10:06:00,81.5,66.3,30.16,South,180,7.4,7.4,60,0.00,,,0.00,WUHU21623XXSP,2013-06-20 15:06:00,
2013-06-20 10:11:00,81.5,66.3,30.16,SSE,157,7.2,7.4,60,0.00,,,0.00,WUHU21623XXSP,2013-06-20 15:11:00,
2013-06-20 10:16:00,81.7,65.9,30.16,SSW,202,0.0,7.2,59,0.00,,,0.00,WUHU21623XXSP,2013-06-20 15:16:00,
2013-06-20 10:21:00,82.2,66.9,30.16,SSE,157,4.9,4.9,60,0.00,,,0.00,WUHU21623XXSP,2013-06-20 15:21:00,
2013-06-20 10:26:00,82.6,67.3,30.16,South,180,0.0,5.1,60,0.00,,,0.00,WUHU21623XXSP,2013-06-20 15:26:00,
2013-06-20 10:31:00,82.8,67.5,30.16,South,180,3.4,5.1,60,0.00,,,0.00,WUHU21623XXSP,2013-06-20 15:31:00,
2013-06-20 10:36:00,83.3,67.8,30.16,South,180,0.0,4.0,59,0.00,,,0.00,WUHU21623XXSP,2013-06-20 15:36:00,
2013-06-20 10:41:00,83.5,67.7,30.16,SSW,202,0.0,4.0,59,0.00,,,0.00,WUHU21623XXSP,2013-06-20 15:41:00,
2013-06-20 10:46:00,83.8,68.0,30.15,SSW,202,0.0,2.2,59,0.00,,,0.00,WUHU21623XXSP,2013-06-20 15:46:00,
2013-06-20 10:51:00,84.0,68.2,30.15,SSW,202,0.0,2.2,59,0.00,,,0.00,WUHU21623XXSP,2013-06-20 15:51:00,
2013-06-20 10:56:00,84.0,68.2,30.15,South,180,0.0,0.0,59,0.00,,,0.00,WUHU21623XXSP,2013-06-20 15:56:00,
2013-06-20 11:01:00,84.6,68.7,30.15,SSE,157,3.8,6.5,59,0.00,,,0.00,WUHU21623XXSP,2013-06-20 16:01:00,
2013-06-20 11:06:00,84.7,68.9,30.14,South,180,2.0,6.5,59,0.00,,,0.00,WUHU21623XXSP,2013-06-20 16:06:00,
2013-06-20 11:11:00,84.9,68.5,30.14,South,180,0.0,2.0,58,0.00,,,0.00,WUHU21623XXSP,2013-06-20 16:11:00,
2013-06-20 11:16:00,85.3,68.7,30.14,South,180,0.0,2.0,58,0.00,,,0.00,WUHU21623XXSP,2013-06-20 16:16:00,
2013-06-20 11:21:00,85.6,69.2,30.14,SSE,157,0.0,0.0,58,0.00,,,0.00,WUHU21623XXSP,2013-06-20 16:21:00,
2013-06-20 11:26:00,85.8,68.6,30.14,SSE,157,0.0,0.0,57,0.00,,,0.00,WUHU21623XXSP,2013-06-20 16:26:00,
2013-06-20 11:31:00,85.8,68.8,30.14,SSE,157,0.0,0.0,57,0.00,,,0.00,WUHU21623XXSP,2013-06-20 16:31:00,
2013-06-20 11:36:00,86.2,69.1,30.14,SSE,157,0.0,0.0,57,0.00,,,0.00,WUHU21623XXSP,2013-06-20 16:36:00,
2013-06-20 11:41:00,86.7,68.6,30.14,SSE,157,0.0,3.6,55,0.00,,,0.00,WUHU21623XXSP,2013-06-20 16:41:00,
2013-06-20 11:46:00,86.9,68.8,30.14,SSE,157,4.0,4.0,55,0.00,,,0.00,WUHU21623XXSP,2013-06-20 16:46:00,
2013-06-20 11:51:00,87.3,69.6,30.14,SSE,157,0.0,4.0,56,0.00,,,0.00,WUHU21623XXSP,2013-06-20 16:51:00,
2013-06-20 11:57:00,87.6,68.9,30.14,SSE,157,0.0,0.0,54,0.00,,,0.00,WUHU21623XXSP,2013-06-20 16:57:00,
2013-06-20 12:01:00,86.2,66.5,30.14,ESE,112,0.0,0.0,52,0.00,,,0.00,WUHU21623XXSP,2013-06-20 17:01:00,
2013-06-20 12:06:00,86.2,66.5,30.14,SW,225,0.0,0.0,52,0.00,,,0.00,WUHU21623XXSP,2013-06-20 17:06:00,
2013-06-20 12:12:00,86.9,66.7,30.14,South,180,0.0,0.0,52,0.00,,,0.00,WUHU21623XXSP,2013-06-20 17:12:00,
2013-06-20 12:17:00,87.1,66.8,30.14,South,180,3.8,3.8,51,0.00,,,0.00,WUHU21623XXSP,2013-06-20 17:17:00,
2013-06-20 12:22:00,86.5,66.5,30.14,SSE,157,0.0,3.8,51,0.00,,,0.00,WUHU21623XXSP,2013-06-20 17:22:00,
2013-06-20 12:27:00,86.7,66.5,30.13,SSE,157,3.1,3.1,51,0.00,,,0.00,WUHU21623XXSP,2013-06-20 17:27:00,
2013-06-20 12:32:00,86.5,66.3,30.13,SSE,157,0.0,3.1,51,0.00,,,0.00,WUHU21623XXSP,2013-06-20 17:32:00,
2013-06-20 12:37:00,86.5,66.3,30.13,SSE,157,7.8,7.8,51,0.00,,,0.00,WUHU21623XXSP,2013-06-20 17:37:00,
2013-06-20 12:42:00,87.6,67.3,30.13,SSE,157,0.0,7.8,51,0.00,,,0.00,WUHU21623XXSP,2013-06-20 17:42:00,
2013-06-20 12:47:00,88.0,67.6,30.13,SSE,157,0.0,7.8,50,0.00,,,0.00,WUHU21623XXSP,2013-06-20 17:47:00,
2013-06-20 12:52:00,88.0,67.1,30.13,SSE,157,0.0,0.0,50,0.00,,,0.00,WUHU21623XXSP,2013-06-20 17:52:00,
2013-06-20 12:57:00,87.6,66.1,30.13,SSE,157,2.2,2.2,49,0.00,,,0.00,WUHU21623XXSP,2013-06-20 17:57:00,
2013-06-20 13:02:00,87.1,66.0,30.13,SSE,157,2.2,2.2,49,0.00,,,0.00,WUHU21623XXSP,2013-06-20 18:02:00,
2013-06-20 13:07:00,87.4,66.4,30.13,SSE,157,0.0,2.2,50,0.00,,,0.00,WUHU21623XXSP,2013-06-20 18:07:00,
2013-06-20 13:12:00,88.3,66.8,30.13,SSE,157,0.0,0.0,49,0.00,,,0.00,WUHU21623XXSP,2013-06-20 18:12:00,
2013-06-20 13:17:00,88.3,66.8,30.13,South,180,3.1,3.1,49,0.00,,,0.00,WUHU21623XXSP,2013-06-20 18:17:00,
2013-06-20 13:22:00,88.0,65.8,30.13,South,180,3.1,3.1,48,0.00,,,0.00,WUHU21623XXSP,2013-06-20 18:22:00,
2013-06-20 13:27:00,88.0,65.8,30.12,South,180,0.0,3.1,48,0.00,,,0.00,WUHU21623XXSP,2013-06-20 18:27:00,
2013-06-20 13:32:00,88.5,66.9,30.12,SSE,157,0.0,3.1,49,0.00,,,0.00,WUHU21623XXSP,2013-06-20 18:32:00,
2013-06-20 13:37:00,89.2,66.8,30.12,SSE,157,8.1,8.1,47,0.00,,,0.00,WUHU21623XXSP,2013-06-20 18:37:00,
2013-06-20 13:42:00,88.9,66.0,30.12,SSE,157,0.0,8.1,47,0.00,,,0.00,WUHU21623XXSP,2013-06-20 18:42:00,
2013-06-20 13:47:00,88.9,66.6,30.12,SSE,157,9.2,9.2,48,0.00,,,0.00,WUHU21623XXSP,2013-06-20 18:47:00,
2013-06-20 13:52:00,89.4,65.8,30.11,SE,135,0.0,9.2,46,0.00,,,0.00,WUHU21623XXSP,2013-06-20 18:52:00,
2013-06-20 13:57:00,89.4,65.8,30.11,SSE,157,2.9,4.7,46,0.00,,,0.00,WUHU21623XXSP,2013-06-20 18:57:00,
2013-06-20 14:02:00,89.4,66.4,30.11,WSW,247,0.0,4.7,47,0.00,,,0.00,WUHU21623XXSP,2013-06-20 19:02:00,
2013-06-20 14:07:00,90.1,66.4,30.11,WSW,247,0.0,0.0,46,0.00,,,0.00,WUHU21623XXSP,2013-06-20 19:07:00,
2013-06-20 14:12:00,90.7,66.9,30.11,South,180,0.0,0.0,46,0.00,,,0.00,WUHU21623XXSP,2013-06-20 19:12:00,
2013-06-20 14:17:00,90.3,65.9,30.11,South,180,0.0,0.0,45,0.00,,,0.00,WUHU21623XXSP,2013-06-20 19:17:00,
2013-06-20 14:22:00,90.7,65.6,30.11,WSW,247,0.0,5.6,44,0.00,,,0.00,WUHU21623XXSP,2013-06-20 19:22:00,
2013-06-20 14:27:00,91.6,66.8,30.11,WSW,247,6.3,6.3,45,0.00,,,0.00,WUHU21623XXSP,2013-06-20 19:27:00,
2013-06-20 14:32:00,91.6,65.8,30.11,WSW,247,8.3,8.3,43,0.00,,,0.00,WUHU21623XXSP,2013-06-20 19:32:00,
2013-06-20 14:37:00,92.1,65.9,30.11,WSW,247,0.0,8.3,43,0.00,,,0.00,WUHU21623XXSP,2013-06-20 19:37:00,
2013-06-20 14:42:00,92.5,66.6,30.11,WSW,247,4.7,7.8,43,0.00,,,0.00,WUHU21623XXSP,2013-06-20 19:42:00,
2013-06-20 14:47:00,92.7,66.1,30.11,WSW,247,0.0,4.7,42,0.00,,,0.00,WUHU21623XXSP,2013-06-20 19:47:00,
2013-06-20 14:52:00,92.3,65.8,30.11,WSW,247,2.9,3.8,42,0.00,,,0.00,WUHU21623XXSP,2013-06-20 19:52:00,
2013-06-20 14:57:00,92.1,65.6,30.11,WSW,247,7.4,7.4,42,0.00,,,0.00,WUHU21623XXSP,2013-06-20 19:57:00,
2013-06-20 15:02:00,92.1,65.0,30.11,WSW,247,0.0,7.4,41,0.00,,,0.00,WUHU21623XXSP,2013-06-20 20:02:00,
2013-06-20 15:07:00,91.9,65.6,30.11,SSE,157,0.0,7.4,42,0.00,,,0.00,WUHU21623XXSP,2013-06-20 20:07:00,
2013-06-20 15:12:00,91.2,64.8,30.11,SSE,157,0.0,0.0,42,0.00,,,0.00,WUHU21623XXSP,2013-06-20 20:12:00,
2013-06-20 15:17:00,90.9,65.1,30.11,WSW,247,0.0,5.6,43,0.00,,,0.00,WUHU21623XXSP,2013-06-20 20:17:00,
2013-06-20 15:22:00,91.2,65.6,30.10,WSW,247,0.0,5.6,43,0.00,,,0.00,WUHU21623XXSP,2013-06-20 20:22:00,
2013-06-20 15:27:00,91.6,66.4,30.10,WSW,247,0.0,0.0,44,0.00,,,0.00,WUHU21623XXSP,2013-06-20 20:27:00,
2013-06-20 15:32:00,91.9,66.1,30.10,WSW,247,0.0,0.0,43,0.00,,,0.00,WUHU21623XXSP,2013-06-20 20:32:00,
2013-06-20 15:37:00,91.9,65.5,30.10,WSW,247,0.0,4.7,42,0.00,,,0.00,WUHU21623XXSP,2013-06-20 20:37:00,
2013-06-20 15:42:00,91.9,65.5,30.10,WSW,247,0.0,6.7,42,0.00,,,0.00,WUHU21623XXSP,2013-06-20 20:42:00,
2013-06-20 15:47:00,91.8,64.7,30.10,WSW,247,0.0,6.7,41,0.00,,,0.00,WUHU21623XXSP,2013-06-20 20:47:00,
2013-06-20 15:53:00,91.4,65.1,30.09,WSW,247,6.3,6.3,42,0.00,,,0.00,WUHU21623XXSP,2013-06-20 20:53:00,
2013-06-20 15:58:00,91.4,65.0,30.09,WSW,247,7.6,7.6,42,0.00,,,0.00,WUHU21623XXSP,2013-06-20 20:58:00,
2013-06-20 16:03:00,91.4,65.0,30.09,WSW,247,3.8,7.6,42,0.00,,,0.00,WUHU21623XXSP,2013-06-20 21:03:00,
2013-06-20 16:08:00,91.2,64.8,30.09,WSW,247,2.2,6.9,42,0.00,,,0.00,WUHU21623XXSP,2013-06-20 21:08:00,
2013-06-20 16:13:00,91.0,64.7,30.09,WSW,247,0.0,6.9,42,0.00,,,0.00,WUHU21623XXSP,2013-06-20 21:13:00,
2013-06-20 16:18:00,90.9,64.7,30.09,WSW,247,2.9,2.9,43,0.00,,,0.00,WUHU21623XXSP,2013-06-20 21:18:00,
2013-06-20 16:23:00,90.1,63.8,30.09,WSW,247,6.0,8.5,42,0.00,,,0.00,WUHU21623XXSP,2013-06-20 21:23:00,
2013-06-20 16:28:00,90.3,64.7,30.09,WSW,247,0.0,8.5,43,0.00,,,0.00,WUHU21623XXSP,2013-06-20 21:28:00,
2013-06-20 16:33:00,90.7,64.3,30.09,WSW,247,0.0,6.0,42,0.00,,,0.00,WUHU21623XXSP,2013-06-20 21:33:00,
2013-06-20 16:38:00,90.7,64.3,30.09,WSW,247,6.0,6.0,42,0.00,,,0.00,WUHU21623XXSP,2013-06-20 21:38:00,
2013-06-20 16:43:00,90.5,64.2,30.09,WSW,247,3.4,6.0,42,0.00,,,0.00,WUHU21623XXSP,2013-06-20 21:43:00,
2013-06-20 16:48:00,90.7,64.3,30.08,WSW,247,0.0,4.9,42,0.00,,,0.00,WUHU21623XXSP,2013-06-20 21:48:00,
2013-06-20 16:53:00,91.0,65.3,30.08,WSW,247,0.0,4.9,42,0.00,,,0.00,WUHU21623XXSP,2013-06-20 21:53:00,
2013-06-20 16:58:00,90.9,64.5,30.08,WSW,247,3.1,3.1,42,0.00,,,0.00,WUHU21623XXSP,2013-06-20 21:58:00,
2013-06-20 17:03:00,91.0,65.9,30.08,WSW,247,0.0,3.1,44,0.00,,,0.00,WUHU21623XXSP,2013-06-20 22:03:00,
2013-06-20 17:08:00,91.2,64.8,30.08,WSW,247,7.8,7.8,42,0.00,,,0.00,WUHU21623XXSP,2013-06-20 22:08:00,
2013-06-20 17:13:00,91.0,64.7,30.08,WSW,247,0.0,7.8,42,0.00,,,0.00,WUHU21623XXSP,2013-06-20 22:13:00,
2013-06-20 17:18:00,90.3,64.0,30.08,WSW,247,1.3,6.5,42,0.00,,,0.00,WUHU21623XXSP,2013-06-20 22:18:00,
2013-06-20 17:23:00,90.1,63.8,30.08,WSW,247,1.3,5.4,42,0.00,,,0.00,WUHU21623XXSP,2013-06-20 22:23:00,
2013-06-20 17:28:00,90.3,63.8,30.08,WSW,247,0.0,8.1,42,0.00,,,0.00,WUHU21623XXSP,2013-06-20 22:28:00,
2013-06-20 17:33:00,90.3,64.0,30.08,WSW,247,0.0,8.1,42,0.00,,,0.00,WUHU21623XXSP,2013-06-20 22:33:00,
2013-06-20 17:38:00,90.5,64.2,30.08,WSW,247,0.0,0.7,42,0.00,,,0.00,WUHU21623XXSP,2013-06-20 22:38:00,
2013-06-20 17:43:00,90.5,64.8,30.08,WSW,247,0.0,4.3,43,0.00,,,0.00,WUHU21623XXSP,2013-06-20 22:43:00,
2013-06-20 17:48:00,90.0,64.7,30.08,WSW,247,6.0,6.0,43,0.00,,,0.00,WUHU21623XXSP,2013-06-20 22:48:00,
2013-06-20 17:53:00,89.4,64.5,30.08,WSW,247,0.0,6.0,44,0.00,,,0.00,WUHU21623XXSP,2013-06-20 22:53:00,
2013-06-20 17:58:00,89.8,65.5,30.08,WSW,247,0.0,4.3,45,0.00,,,0.00,WUHU21623XXSP,2013-06-20 22:58:00,
2013-06-20 18:04:00,89.8,64.8,30.08,WSW,247,0.0,4.3,44,0.00,,,0.00,WUHU21623XXSP,2013-06-20 23:04:00,
2013-06-20 18:09:00,90.1,65.0,30.07,WSW,247,0.0,0.0,43,0.00,,,0.00,WUHU21623XXSP,2013-06-20 23:09:00,
2013-06-20 18:14:00,89.8,64.2,30.07,WSW,247,2.5,6.9,43,0.00,,,0.00,WUHU21623XXSP,2013-06-20 23:14:00,
2013-06-20 18:19:00,89.8,64.8,30.08,WSW,247,5.8,6.9,44,0.00,,,0.00,WUHU21623XXSP,2013-06-20 23:19:00,
2013-06-20 18:24:00,89.4,64.5,30.07,WSW,247,3.8,5.8,44,0.00,,,0.00,WUHU21623XXSP,2013-06-20 23:24:00,
2013-06-20 18:29:00,88.9,64.7,30.08,WSW,247,5.6,5.6,45,0.00,,,0.00,WUHU21623XXSP,2013-06-20 23:29:00,
2013-06-20 18:34:00,88.5,64.5,30.08,WSW,247,5.6,5.6,46,0.00,,,0.00,WUHU21623XXSP,2013-06-20 23:34:00,
2013-06-20 18:39:00,88.5,65.0,30.07,WSW,247,5.6,5.6,46,0.00,,,0.00,WUHU21623XXSP,2013-06-20 23:39:00,
2013-06-20 18:44:00,88.3,64.8,30.07,WSW,247,0.0,8.3,46,0.00,,,0.00,WUHU21623XXSP,2013-06-20 23:44:00,
2013-06-20 18:49:00,88.0,65.2,30.08,WSW,247,6.0,8.3,47,0.00,,,0.00,WUHU21623XXSP,2013-06-20 23:49:00,
2013-06-20 18:54:00,87.6,64.9,30.07,WSW,247,0.0,6.0,47,0.00,,,0.00,WUHU21623XXSP,2013-06-20 23:54:00,
2013-06-20 18:59:00,87.4,64.9,30.08,WSW,247,5.6,7.8,47,0.00,,,0.00,WUHU21623XXSP,2013-06-20 23:59:00,
2013-06-20 19:04:00,87.1,64.4,30.08,WSW,247,1.8,6.0,47,0.00,,,0.00,WUHU21623XXSP,2013-06-21 00:04:00,
2013-06-20 19:09:00,87.1,65.0,30.07,WSW,247,5.1,6.0,48,0.00,,,0.00,WUHU21623XXSP,2013-06-21 00:09:00,
2013-06-20 19:14:00,86.9,64.8,30.08,WSW,247,7.2,7.2,48,0.00,,,0.00,WUHU21623XXSP,2013-06-21 00:14:00,
2013-06-20 19:19:00,86.5,64.7,30.07,SSE,157,2.9,7.2,48,0.00,,,0.00,WUHU21623XXSP,2013-06-21 00:19:00,
2013-06-20 19:24:00,86.2,64.8,30.08,SSE,157,2.9,5.8,49,0.00,,,0.00,WUHU21623XXSP,2013-06-21 00:24:00,
2013-06-20 19:29:00,85.8,64.5,30.07,SSE,157,2.5,5.8,49,0.00,,,0.00,WUHU21623XXSP,2013-06-21 00:29:00,
2013-06-20 19:34:00,85.6,65.0,30.08,South,180,6.0,6.0,50,0.00,,,0.00,WUHU21623XXSP,2013-06-21 00:34:00,
2013-06-20 19:39:00,85.1,64.7,30.07,SSE,157,5.6,6.0,50,0.00,,,0.00,WUHU21623XXSP,2013-06-21 00:39:00,
2013-06-20 19:44:00,84.7,64.7,30.08,SSE,157,2.0,5.6,51,0.00,,,0.00,WUHU21623XXSP,2013-06-21 00:44:00,
2013-06-20 19:49:00,84.7,64.7,30.07,SSE,157,0.0,3.1,51,0.00,,,0.00,WUHU21623XXSP,2013-06-21 00:49:00,
2013-06-20 19:54:00,84.4,64.4,30.07,South,180,5.1,5.1,51,0.00,,,0.00,WUHU21623XXSP,2013-06-21 00:54:00,
2013-06-20 19:59:00,84.0,64.0,30.07,South,180,6.7,6.7,51,0.00,,,0.00,WUHU21623XXSP,2013-06-21 00:59:00,
2013-06-20 20:04:00,83.7,64.2,30.07,SSE,157,2.9,6.7,52,0.00,,,0.00,WUHU21623XXSP,2013-06-21 01:04:00,
2013-06-20 20:10:00,82.9,63.5,30.07,SSE,157,0.7,7.6,52,0.00,,,0.00,WUHU21623XXSP,2013-06-21 01:10:00,
2013-06-20 20:15:00,82.6,63.1,30.07,SSE,157,0.0,7.6,52,0.00,,,0.00,WUHU21623XXSP,2013-06-21 01:15:00,
2013-06-20 20:20:00,82.0,63.3,30.07,SSE,157,0.0,4.3,53,0.00,,,0.00,WUHU21623XXSP,2013-06-21 01:20:00,
2013-06-20 20:25:00,81.7,62.8,30.07,SSE,157,0.0,0.0,53,0.00,,,0.00,WUHU21623XXSP,2013-06-21 01:25:00,
2013-06-20 20:30:00,81.3,62.5,30.07,South,180,8.1,8.1,53,0.00,,,0.00,WUHU21623XXSP,2013-06-21 01:30:00,
2013-06-20 20:35:00,81.0,62.7,30.07,SSE,157,0.0,8.1,54,0.00,,,0.00,WUHU21623XXSP,2013-06-21 01:35:00,
2013-06-20 20:40:00,80.4,62.7,30.07,SSE,157,0.0,3.8,55,0.00,,,0.00,WUHU21623XXSP,2013-06-21 01:40:00,
2013-06-20 20:45:00,80.2,62.5,30.07,SSE,157,0.0,3.8,55,0.00,,,0.00,WUHU21623XXSP,2013-06-21 01:45:00,
2013-06-20 20:50:00,79.9,62.4,30.08,SSE,157,0.0,0.0,55,0.00,,,0.00,WUHU21623XXSP,2013-06-21 01:50:00,
2013-06-20 20:55:00,79.5,62.4,30.08,SSE,157,0.0,0.0,56,0.00,,,0.00,WUHU21623XXSP,2013-06-21 01:55:00,
2013-06-20 21:00:00,79.3,62.3,30.08,SSE,157,0.0,0.0,56,0.00,,,0.00,WUHU21623XXSP,2013-06-21 02:00:00,
2013-06-20 21:05:00,79.2,62.8,30.08,SSE,157,0.0,0.0,57,0.00,,,0.00,WUHU21623XXSP,2013-06-21 02:05:00,
2013-06-20 21:10:00,79.0,62.6,30.08,SSE,157,4.7,4.7,57,0.00,,,0.00,WUHU21623XXSP,2013-06-21 02:10:00,
2013-06-20 21:15:00,78.6,62.1,30.08,SSE,157,0.0,4.7,57,0.00,,,0.00,WUHU21623XXSP,2013-06-21 02:15:00,
2013-06-20 21:20:00,78.4,62.6,30.08,SSE,157,0.0,0.0,58,0.00,,,0.00,WUHU21623XXSP,2013-06-21 02:20:00,
2013-06-20 21:25:00,78.3,62.3,30.09,SSE,157,0.0,0.0,58,0.00,,,0.00,WUHU21623XXSP,2013-06-21 02:25:00,
2013-06-20 21:30:00,78.1,62.1,30.09,SSE,157,0.0,0.0,58,0.00,,,0.00,WUHU21623XXSP,2013-06-21 02:30:00,
2013-06-20 21:35:00,77.7,62.3,30.09,SSE,157,0.0,0.0,59,0.00,,,0.00,WUHU21623XXSP,2013-06-21 02:35:00,
2013-06-20 21:40:00,77.5,62.1,30.09,SSE,157,0.0,0.0,59,0.00,,,0.00,WUHU21623XXSP,2013-06-21 02:40:00,
2013-06-20 21:45:00,77.4,62.4,30.10,South,180,4.9,4.9,60,0.00,,,0.00,WUHU21623XXSP,2013-06-21 02:45:00,
2013-06-20 21:50:00,77.2,62.2,30.09,South,180,0.0,4.9,60,0.00,,,0.00,WUHU21623XXSP,2013-06-21 02:50:00,
2013-06-20 21:55:00,77.0,62.1,30.10,South,180,0.0,3.8,60,0.00,,,0.00,WUHU21623XXSP,2013-06-21 02:55:00,
2013-06-20 22:00:00,76.8,61.9,30.10,South,180,0.0,3.8,60,0.00,,,0.00,WUHU21623XXSP,2013-06-21 03:00:00,
2013-06-20 22:05:00,76.6,61.7,30.10,South,180,0.0,0.0,60,0.00,,,0.00,WUHU21623XXSP,2013-06-21 03:05:00,
2013-06-20 22:11:00,76.6,61.7,30.10,South,180,0.0,0.0,60,0.00,,,0.00,WUHU21623XXSP,2013-06-21 03:11:00,
2013-06-20 22:16:00,76.3,61.8,30.11,South,180,0.0,0.0,61,0.00,,,0.00,WUHU21623XXSP,2013-06-21 03:16:00,
2013-06-20 22:20:00,75.9,61.5,30.11,South,180,0.0,0.0,61,0.00,,,0.00,WUHU21623XXSP,2013-06-21 03:20:00,
2013-06-20 22:25:00,75.7,61.8,30.11,South,180,0.0,0.0,62,0.00,,,0.00,WUHU21623XXSP,2013-06-21 03:25:00,
2013-06-20 22:30:00,75.4,61.5,30.11,South,180,0.0,0.0,62,0.00,,,0.00,WUHU21623XXSP,2013-06-21 03:30:00,
2013-06-20 22:36:00,75.0,61.6,30.11,South,180,0.0,0.0,63,0.00,,,0.00,WUHU21623XXSP,2013-06-21 03:36:00,
2013-06-20 22:40:00,75.0,61.6,30.11,South,180,0.0,0.0,63,0.00,,,0.00,WUHU21623XXSP,2013-06-21 03:40:00,
2013-06-20 22:45:00,74.5,61.8,30.11,South,180,0.0,0.0,64,0.00,,,0.00,WUHU21623XXSP,2013-06-21 03:45:00,
2013-06-20 22:51:00,74.5,61.5,30.11,South,180,0.0,0.0,64,0.00,,,0.00,WUHU21623XXSP,2013-06-21 03:51:00,
2013-06-20 22:56:00,74.3,61.3,30.11,South,180,0.0,0.0,65,0.00,,,0.00,WUHU21623XXSP,2013-06-21 03:56:00,
2013-06-20 23:01:00,74.1,61.6,30.12,South,180,0.0,0.0,65,0.00,,,0.00,WUHU21623XXSP,2013-06-21 04:01:00,
2013-06-20 23:02:00,74.1,61.6,30.12,South,180,0.0,0.0,65,0.00,,,0.00,WUHU21623XXSP,2013-06-21 04:02:00,
2013-06-20 23:07:00,73.9,61.4,30.12,South,180,0.0,0.0,65,0.00,,,0.00,WUHU21623XXSP,2013-06-21 04:07:00,
2013-06-20 23:12:00,73.6,61.2,30.12,South,180,0.0,0.0,65,0.00,,,0.00,WUHU21623XXSP,2013-06-21 04:12:00,
2013-06-20 23:17:00,73.4,61.3,30.12,South,180,0.0,0.0,66,0.00,,,0.00,WUHU21623XXSP,2013-06-21 04:17:00,
2013-06-20 23:22:00,73.2,61.6,30.12,South,180,0.0,0.0,67,0.00,,,0.00,WUHU21623XXSP,2013-06-21 04:22:00,
2013-06-20 23:27:00,73.0,61.4,30.12,South,180,0.0,0.0,67,0.00,,,0.00,WUHU21623XXSP,2013-06-21 04:27:00,
2013-06-20 23:32:00,72.9,61.3,30.12,South,180,0.0,0.0,67,0.00,,,0.00,WUHU21623XXSP,2013-06-21 04:32:00,
2013-06-20 23:37:00,72.7,61.5,30.13,South,180,0.0,0.0,68,0.00,,,0.00,WUHU21623XXSP,2013-06-21 04:37:00,
2013-06-20 23:42:00,72.5,61.4,30.13,South,180,0.0,0.0,68,0.00,,,0.00,WUHU21623XXSP,2013-06-21 04:42:00,
2013-06-20 23:47:00,72.5,61.8,30.13,South,180,0.0,0.0,69,0.00,,,0.00,WUHU21623XXSP,2013-06-21 04:47:00,
2013-06-20 23:52:00,72.3,61.6,30.13,South,180,0.0,0.0,69,0.00,,,0.00,WUHU21623XXSP,2013-06-21 04:52:00,
2013-06-20 23:57:00,72.3,61.6,30.13,South,180,0.0,0.0,69,0.00,,,0.00,WUHU21623XXSP,2013-06-21 04:57:00,